AirNav   Air Wisconsin pilot careers
 
 473 users online  

SN95 Roberts Air Field
Sylvia, Kansas, USA


FAA INFORMATION EFFECTIVE 09 NOVEMBER 2017

Location

FAA Identifier: SN95
Lat/Long: 37-58-39.0510N / 098-24-15.2610W
37-58.650850N / 098-24.254350W
37.9775142 / -98.4042392
(estimated)
Elevation: 1765 ft. / 538 m (estimated)
Variation: 07E (1985)
From city: 2 miles NE of SYLVIA, KS
Time zone: UTC -6 (UTC -5 during Daylight Saving Time)
Zip code: 67581

Airport Operations

Airport use: Private use. Permission required prior to landing
Activation date: 09/1976
Control tower: no
ARTCC: KANSAS CITY CENTER
FSS: WICHITA FLIGHT SERVICE STATION
Attendance: IREG
Wind indicator: yes
Segmented circle: no
Lights: TO ACTVT LIRL RW 17/35 KEY 122.7 5 TIMES.
Beacon: white-green (lighted land airport)
FOR ROTG BCN KEY 122.7 5 TIMES.

Airport Communications

UNICOM: 122.8

Nearby radio navigation aids

VOR radial/distance  VOR name  Freq  Var
HUTr258/22.3HUTCHINSON VOR/DME116.8009E

 
NDB name  Hdg/Dist  Freq  Var  ID
PRATT040/22.235607EPTT .--. - -

Airport Services

Parking: tiedowns
Airframe service: MINOR
Powerplant service: MINOR

Runway Information

Runway 17/35

Dimensions: 2250 x 90 ft. / 686 x 27 m
Surface: concrete/turf, in good condition
CENTER 32 FT. CONC FOR ENTIRE LGTH.
Runway edge lights: low intensity
RUNWAY 17  RUNWAY 35
Traffic pattern: leftleft
Markings: numbers only, in good conditionnumbers only, in good condition
Obstructions: 35 ft. trees, 1300 ft. from runway, 31:1 slope to clear
+4' FENCE AT 22 FT.
35 ft. trees, 1300 ft. from runway, 50 ft. left of centerline, 31:1 slope to clear
+19' ROAD AT 165 FT.

Runway 13/31

Dimensions: 3150 x 95 ft. / 960 x 29 m
Surface: turf, in fair condition
RUNWAY 13  RUNWAY 31
Traffic pattern: leftleft
Obstructions: 5 ft. fence, 40 ft. from runway, 8:1 slope to clear19 ft. road, 120 ft. from runway, 6:1 slope to clear

Airport Ownership and Management from official FAA records

Ownership: Privately-owned
Owner: L. J. ROBERTS, JR.
RT 1
SYLVIA, KS 67581
Phone 316-486-3445
Manager: L.S. ROBERTS JR.
RT 1
SYLVIA, KS 67581
Phone 316-486-3445

Airport Operational Statistics

Aircraft based on the field: 6
Single engine airplanes: 5
Multi engine airplanes: 1
    
Aircraft operations: avg 25/week *
77% local general aviation
23% transient general aviation
* for 12-month period ending 05 May 1992

Instrument Procedures

There are no published instrument procedures at SN95.

Some nearby airports with instrument procedures:

9K8 - Kingman Airport - Clyde Cessna Field (23 nm SE)
KPTT - Pratt Regional Airport (23 nm SW)
KLYO - Lyons-Rice County Municipal Airport (23 nm N)
KHUT - Hutchinson Regional Airport (26 nm E)
KGBD - Great Bend Municipal Airport (31 nm NW)
 
Loc | Ops | Rwys | IFR | FBO | Links
Com | Nav | Svcs | Stats | Notes

Kansas City Aviation Department
 
Area around SN95 (Roberts Air Field)
 
Road maps at: MapQuest Bing Google
 
Aerial photo
No photo
 
Sectional chart

 
Airport distance calculator
Flying to Roberts Air Field? Find the distance to fly.

From to SN95

Sunrise and sunset
Times for 21-Nov-2017
 Local
(UTC-6)
 Zulu
(UTC)
Morning civil twilight06:5312:53
Sunrise07:2213:22
Sunset17:1723:17
Evening civil twilight17:4623:46

Current date and time
Zulu (UTC)  22-Nov-2017 05:54:13
Local (UTC-6)  21-Nov-2017 23:54:13
 
METAR
KPTT 
23nm SW 
220535Z AUTO 02007KT 10SM CLR M04/M12 A3040 RMK AO2 T10411120
KHUT 
26nm E 
220452Z 35006KT 10SM CLR M03/M11 A3042 RMK AO2 SLP302 T10281106
KGBD 
31nm NW 
220456Z AUTO 00000KT 10SM CLR M06/M11 A3042 RMK AO2 SLP317 T10611111 FZRANO
KP28 
42nm S 
220456Z AUTO 36004KT M02/M11 A3041 RMK AO1 SLP307 T10171106
8K2 
45nm S 
SuperAWOS
220513Z AUTO 10SM M02/M13 A3042
TAF
KHUT 
26nm E 
211720Z 2118/2218 01022G31KT P6SM SKC FM220000 01013KT P6SM SKC FM220300 01007KT P6SM SKC FM221300 19008KT P6SM FEW250
KGBD 
31nm NW 
211720Z 2118/2218 01022G30KT P6SM SKC FM212300 01014KT P6SM SKC FM220200 02007KT P6SM SKC FM221100 19004KT P6SM SKC FM221500 19013KT P6SM FEW250 AMD LTD TO CLD VIS AND WIND
NOTAMs
Click for the latest NOTAMs
NOTAMs are issued by the DoD/FAA and will open in a separate window not controlled by AirNav.

 

 
 

Would you like to see your business listed on this page?

 If your business provides an interesting product or service to pilots, flight crews, aircraft, or users of the Roberts Air Field, you should consider listing it here.  To start the listing process, click on the button below
 
Add a business
 

Other Pages about Roberts Air Field

Update a link
 
Copyright © AirNav, LLC. All rights reserved. Privacy Policy  Contact